User: anonymous   Login
Location: ActonStarParty
(42.4766°N, 71.4538°W)
Time: 03:45:00
(UTC-05:00)
Language:

Cosmos 1300 - Orbit

View from above orbital plane
View from above orbital plane
View from above satellite
View from above satellite

Ground track
Ground track

The orbit data is extracted from the following two-line orbital elements,

1 12785U 81082A   14352.25112522  .00005961  00000-0  33793-3 0  8906
2 12785 082.5065 252.9433 0003003 111.0867 042.3702 15.12810918813735
Epoch (UTC): 18 December 2014 06:01:37
Eccentricity: 0.0003003
inclination: 82.5065°
perigee height: 525 km
apogee height: 530 km
right ascension of ascending node: 252.9433°
argument of perigee: 111.0867°
revolutions per day: 15.12810918
mean anomaly at epoch: 42.3702°
orbit number at epoch: 81373

The dashed part of the orbit path shows where the satellite is in the earth's shadow,  

DLR